Location: Mattos
(37.5460°N, 122.0175°W)
Time: 02:03:13
(UTC+00:00)

Daily predictions for brighter satellites

Satellite Brightness Start Highest point End
(mag) Time Altitude Azimuth Time Altitude Azimuth Time Altitude Azimuth
Cosmos 2278 Rocket 3.8 03:37:55 10° NW 03:42:57 34° WSW 03:47:58 10° SSW
CZ-4B R/B 3.2 03:38:43 10° SSE 03:43:59 63° ENE 03:49:13 10° N
Lacrosse 5 2.0 03:40:04 10° NW 03:45:11 87° SW 03:50:18 10° SE
Cosmos 2056 Rocket 4.2 03:40:16 10° N 03:45:17 39° ENE 03:50:12 10° SE
Cosmos 1812 Rocket 3.6 03:42:24 10° S 03:46:48 89° E 03:51:12 10° N
SJ-6B 3.4 03:44:58 10° S 03:48:37 55° W 03:52:15 10° NNW
Okean-O 3.9 03:50:01 10° ESE 03:53:32 24° ENE 03:57:04 10° NNE
Feng Yun 1-1 Rocket 4.5 03:49:13 10° SSE 03:55:04 71° ENE 04:00:58 10° N
Cosmos 494 Rocket 4.3 03:52:44 10° S 03:57:32 44° ESE 04:02:22 10° NNE
Cosmos 2297 4.2 03:52:13 10° N 03:57:43 45° ENE 04:03:09 10° SE
Cosmos 1378 2.8 03:55:17 10° S 03:58:31 87° W 04:01:49 10° N
ATLAS 3B R/B 3.1 03:50:46 10° NNW 03:58:41 84° ENE 04:06:21 10° SSE
Hubble Space Telescope 2.8 03:59:16 10° SSE 03:59:26 10° SSE 03:59:37 10° SSE
USA 276 3.2 03:57:58 10° NNW 03:59:42 20° NNE 04:01:27 10° E
Cosmos 1464 Rocket 4.1 03:56:06 10° N 04:02:23 89° W 04:08:34 10° S
SPOT 5 4.1 04:03:28 10° ESE 04:06:53 22° ENE 04:10:16 10° NNE
Cosmos 2084 3.3 04:03:56 10° NNW 04:07:40 61° NE 04:10:59 13° SE
PSLV R/B 3.6 04:06:29 10° SSE 04:10:11 69° ENE 04:13:53 10° N
CSL-04 Rocket 3.6 04:05:25 10° SSE 04:10:42 83° ENE 04:16:00 10° NNW
Cosmos 44 3.1 04:07:33 10° NNW 04:12:18 89° NE 04:16:27 12° SSE
ISS -1.5 04:12:46 10° NNW 04:15:11 18° NNE 04:17:36 10° ENE
Cosmos 1048 Rocket 4.2 04:10:29 10° S 04:15:23 46° ESE 04:20:16 10° NNE
SL-16 R/B 3.5 04:10:47 10° SW 04:16:10 44° WNW 04:21:36 10° N
CSL-04 Debris 4.3 04:11:23 10° S 04:16:51 80° WSW 04:22:20 10° NNW
Cosmos 1603 4.3 04:14:07 10° SSE 04:19:11 35° ESE 04:24:18 10° NE
FALCON 9 R/B 2.6 04:19:48 10° W 04:23:48 68° S 04:36:15 10° E
Cosmos 1656 Rocket 3.6 04:20:03 10° NNW 04:25:32 76° ENE 04:30:15 15° SSE
USA 290 4.1 04:23:17 10° NW 04:26:06 28° WSW 04:28:53 10° SSW
Cosmos 2369 Rocket 2.3 04:21:50 10° NNW 04:27:22 60° ENE 04:31:40 17° SE
BREEZE-M DEB (TANK) 4.1 04:27:39 10° W 04:30:04 41° NNW 04:36:05 10° NE
Cosmos 1842 Rocket 4.0 04:26:57 13° SSE 04:30:38 42° E 04:34:49 10° NNE
Cosmos 1371 Rocket 4.2 04:26:25 10° NNW 04:31:47 76° WSW 04:36:48 12° S
SeaSat 1 3.2 04:28:15 10° S 04:32:58 48° WSW 04:37:43 10° NW
Resurs 01 Rocket 2.6 04:31:01 10° S 04:35:16 46° W 04:39:33 10° NNW
Cosmos 1634 Rocket 4.1 04:29:22 10° N 04:35:32 57° E 04:40:23 16° SSE
Meteor 2-6 Rocket 4.1 04:30:07 10° S 04:35:41 73° E 04:41:09 10° NNE
CZ-4 R/B 3.9 04:34:12 10° SW 04:36:42 17° W 04:39:15 10° NW
Aureole 3 Rocket 3.6 04:33:02 10° N 04:37:41 86° E 04:44:16 10° S
Okean 3 Rocket 4.2 04:33:39 10° N 04:37:42 37° ENE 04:39:50 23° SE
MOS 1 4.3 04:37:46 16° SSE 04:42:22 73° ENE 04:48:01 10° N
Cosmos 2221 3.5 04:40:30 10° SSW 04:44:40 48° W 04:48:51 10° N
Okean O Rocket 2.6 04:40:38 10° S 04:44:51 44° W 04:49:05 10° NNW
IRS-1C Rocket 4.2 04:46:13 22° SE 04:49:31 58° ENE 04:54:41 10° N
Cosmos 1943 3.4 04:46:58 10° SSW 04:52:38 73° WNW 04:58:19 10° NNE
Cosmos 1340 Rocket 4.0 04:59:03 25° E 04:59:03 25° E 05:02:17 10° NE
Cosmos 1766 Rocket 4.0 04:55:12 10° NNW 04:59:37 62° W 05:02:52 18° S
SPOT 3 Rocket 4.4 04:59:09 25° ESE 05:01:10 34° ENE 05:05:45 10° N
IRS-1A Rocket 4.2 04:59:03 25° SSE 05:02:24 72° ENE 05:07:56 10° N
USA 229 DEB 4.1 05:00:45 10° NW 05:08:25 84° WSW 05:13:29 26° SSE
USA 229 4.1 05:00:51 10° NW 05:08:32 85° WSW 05:13:36 26° SSE
Ariane Rocket 3.4 05:09:01 32° ESE 05:10:52 46° ENE 05:15:43 10° N
Cosmos 1743 3.8 05:08:22 10° NNW 05:11:44 38° W 05:13:46 20° SSW
Terra 1.9 05:13:06 38° SE 05:14:42 59° ENE 05:19:21 10° N
Meteor 1-27 Rocket 3.8 05:12:41 32° SSE 05:15:03 55° E 05:20:26 10° NNE
MetOp-B 4.3 05:13:38 24° S 05:16:54 69° WSW 05:22:15 10° NNW
USA 59 Rocket 2.2 05:14:29 10° N 05:17:21 17° NE 05:19:18 14° ENE
MOS 1 Rocket 3.9 05:17:55 36° ESE 05:19:30 47° ENE 05:24:35 10° N
Helios 1B 4.4 05:17:24 10° NNE 05:21:43 74° ESE 05:23:03 43° S
USA 306 3.5 05:20:49 10° NNW 05:24:27 39° NE 05:25:11 35° ENE
Cosmos 1408 Rocket 3.5 05:20:58 10° N 05:25:26 74° E 05:26:25 52° SSE
GEOS 3 Rocket 3.6 05:21:29 10° NE 05:26:32 55° ESE 05:28:29 34° S
DELTA 2 R/B (1) 3.8 05:22:05 10° SW 05:27:21 43° SSE 05:27:44 43° SE
Lacrosse 5 4.3 05:25:49 10° W 05:27:26 11° WSW 05:29:03 10° SW
Chandra Rocket (1) 4.4 04:58:11 10° WSW 05:28:32 56° S 05:33:08 30° ESE
USA 245 4.4 05:29:59 24° NNW 05:29:59 24° NNW 05:31:05 10° NNW
Okean-O 4.3 05:26:47 14° SSW 05:29:46 27° W 05:33:32 10° NW
Okean 1 3.2 05:29:06 53° SSW 05:29:55 78° W 05:33:48 10° N
Cosmos 1452 Rocket 3.5 05:25:51 10° NNW 05:31:06 79° WSW 05:32:54 42° S
Landsat 4 3.3 05:31:30 89° ENE 05:31:30 89° ENE 05:35:00 10° NNW
ERS-1 Rocket 3.0 05:32:05 38° S 05:33:59 73° WSW 05:39:01 10° NNW
Cosmos 1726 2.7 05:33:29 10° NNW 05:36:25 40° W 05:36:25 40° W
Spot 1 3.9 05:34:44 10° NNE 05:38:52 68° ESE 05:39:00 67° ESE
USA 281 3.7 05:37:49 33° ESE 05:40:19 48° ENE 05:46:35 10° N
Cosmos 1151 Rocket 3.1 05:40:46 59° E 05:40:46 59° E 05:45:00 10° NNE
SPOT 5 4.1 05:42:37 21° SW 05:44:44 31° W 05:48:41 10° NW
Cosmos 614 Rocket 3.9 05:44:17 56° SSE 05:45:12 68° ESE 05:50:24 10° NNE
NOSS 3-3 (C) 3.8 05:47:35 50° ESE 05:47:35 50° ESE 05:53:12 10° NE
Meteor 2-10 4.0 05:42:35 10° N 05:48:04 84° E 05:49:12 57° SSE
Cosmos 1536 3.3 05:45:24 10° NNW 05:49:11 50° W 05:49:34 48° WSW
BREEZE-M DEB (TANK) 3.5 05:52:43 45° E 05:52:43 45° E 06:00:09 10° ENE
ISS -2.5 05:48:51 10° NW 05:51:08 38° WNW 05:51:08 38° WNW
Cosmos 1092 Rocket 4.3 05:51:37 44° ESE 05:52:33 47° E 05:58:33 10° NNE
Cosmos 1733 3.7 05:50:13 10° N 05:52:55 51° N 05:52:55 51° N
Cosmos 1805 4.4 05:51:42 10° N 05:54:09 32° NE 05:54:09 32° NE
Cosmos 1500 Rocket 3.8 05:56:09 10° NNW 06:00:23 58° W 06:00:39 57° WSW
Cosmos 1833 Rocket 3.9 06:03:36 26° ENE 06:03:36 26° ENE 06:06:57 10° NE
Lacrosse 4 Rocket 3.2 05:58:58 10° N 06:02:01 22° NE 06:02:01 22° NE
Cosmos 2195 Rocket 4.4 06:01:40 56° SSE 06:02:51 70° E 06:08:55 10° NNE
Cosmos 1340 3.6 06:00:08 10° N 06:02:24 40° NNW 06:02:24 40° NNW
Nadezhda 4 Rocket 4.2 06:03:50 35° SSW 06:06:31 67° W 06:12:44 10° N
NOSS 2-1 (C) 4.4 06:04:44 10° NNW 06:08:50 47° ENE 06:09:09 46° ENE
Cosmos 2369 Rocket 4.3 06:07:26 10° WNW 06:10:47 16° W 06:13:28 12° SW
Cosmos 1805 Rocket 4.0 06:06:46 10° NNW 06:11:04 55° W 06:11:09 55° W
Cosmos 1302 Rocket 3.8 06:08:07 10° NNW 06:13:20 82° WSW 06:13:38 78° SSW
Cosmos 1992 Rocket 4.4 06:08:30 10° N 06:13:32 47° ENE 06:13:37 47° ENE
Landsat 5 4.2 06:12:01 10° N 06:15:30 43° WNW 06:15:30 43° WNW
Cosmos 1633 Rocket 4.1 06:13:14 10° N 06:16:29 36° NE 06:16:29 36° NE
Cosmos 220 Rocket 4.5 06:19:24 56° WNW 06:19:24 56° WNW 06:23:38 10° N
Cosmos 1666 Rocket 4.3 06:15:38 10° N 06:18:53 44° NE 06:18:53 44° NE
Cosmos 1656 4.1 06:19:37 10° N 06:24:55 48° ENE 06:25:08 48° ENE
Sich 1 4.2 06:21:16 10° NNW 06:25:16 36° W 06:25:18 36° W
Centaur D AC-29 3.8 06:18:42 10° WSW 06:25:28 52° SSE 07:31:35 10° ESE
Centaur D AC-29 3.8 06:18:42 10° WSW 06:25:28 52° SSE 07:31:34 10° ESE
IRIDIUM 104 4.2 06:26:39 10° N 06:31:46 85° NW 06:31:46 85° NW
CZ-2C R/B 4.3 06:31:00 10° NNE 06:34:19 49° NNE 06:34:19 49° NNE
Cosmos 1626 4.5 06:41:26 19° N 06:41:26 19° N 06:42:29 10° N
IRIDIUM 114 4.4 06:35:49 10° N 06:40:54 71° WNW 06:40:54 71° WNW
CZ-3 Stage 3 3.9 06:11:55 10° WSW 06:44:48 55° S 06:47:18 47° SE
Cosmos 2026 Rocket 4.2 06:44:41 53° SW 06:45:55 63° W 06:52:07 10° N
Cosmos 1818 4.4 06:43:51 31° WSW 06:45:59 46° NW 06:51:16 10° NNE
Terra 4.2 06:51:48 12° WSW 06:52:38 12° W 06:54:31 10° WNW
ARIANE 5 R/B 3.6 06:57:31 44° N 06:57:31 44° N 07:00:29 10° NNW
Cosmos 1697 Rocket 3.5 06:58:45 10° N 07:03:59 41° ENE 07:03:59 41° ENE
Cosmos 724 4.5 07:06:45 61° NE 07:06:45 61° NE 07:11:38 10° NNE
USA 59 Rocket 1.2 07:02:36 10° NW 07:05:51 45° WNW 07:05:51 45° WNW
Meteor 2-12 Rocket 4.3 07:09:12 82° W 07:09:12 82° W 07:15:23 10° N
Cosmos 1980 Rocket 3.8 07:07:52 10° N 07:12:23 23° ENE 07:13:15 23° ENE
USA 267 3.9 07:07:51 10° NE 07:12:17 39° E 07:12:17 39° E
S3M 4.5 07:09:06 10° N 07:15:14 49° ENE 07:15:14 49° ENE
Cosmos 1607 4.0 07:17:29 71° W 07:17:57 75° WNW 07:24:28 10° NNE
Cosmos 2251 Rocket 4.4 07:23:50 43° NE 07:23:50 43° NE 07:27:29 10° NNE
Cosmos 1553 Rocket 3.9 07:17:20 10° N 07:23:08 74° WNW 07:23:08 74° WNW
USA 281 4.3 07:24:41 30° WSW 07:24:54 30° WSW 07:30:34 10° NW
Cosmos 2285 Rocket 3.9 07:28:32 83° N 07:28:32 83° N 07:34:39 10° NNE
COSMOS 2406 4.5 07:32:36 31° ENE 07:32:36 31° ENE 07:36:12 10° NE
H-2A R/B 4.3 07:38:14 27° NW 07:38:14 27° NW 07:40:23 10° NNW
Meteor 1-13 Rocket 4.4 07:37:05 72° NNE 07:37:05 72° NNE 07:42:21 10° N
Lacrosse 4 Rocket 3.9 07:36:52 10° NW 07:37:56 16° WNW 07:37:56 16° WNW
H-2A R/B 3.9 07:40:16 10° NNE 07:42:24 26° NE 07:42:24 26° NE
Cosmos 1833 Rocket 3.8 07:45:13 33° WNW 07:45:55 34° WNW 07:51:01 10° N
Cosmos 2082 Rocket 2.7 07:52:08 54° NE 07:52:08 54° NE 07:56:35 10° NNE
Cosmos 2266 Rocket 4.1 07:55:11 64° WNW 07:55:11 64° WNW 08:01:05 10° N
Cosmos 1655 Rocket 4.0 08:00:31 80° NNW 08:00:31 80° NNW 08:06:34 10° N
Cosmos 883 Rocket 4.5 08:01:41 10° N 08:07:31 78° NNW 08:07:31 78° NNW
ALOS 2 4.5 08:10:42 26° NW 08:10:42 26° NW 08:12:50 10° NNW
Lacrosse 5 rocket 3.8 08:22:31 10° NNW 08:25:26 18° NNE 08:25:54 18° NE
SJ 16-02 4.0 08:41:02 12° ENE 08:41:02 12° ENE 08:41:52 10° ENE
Meteor 2-10 Rocket 4.2 08:37:44 10° NNW 08:42:30 54° NW 08:42:30 54° NW
Cosmos 2322 Rocket 4.4 08:40:33 10° N 08:44:35 20° NE 08:48:33 10° E
Cosmos 1697 Rocket 4.5 08:43:14 10° NW 08:45:42 20° WNW 08:45:42 20° WNW
ATLAS CENTAUR R/B 4.1 08:38:48 10° NW 08:51:16 55° WSW 08:52:15 53° SW
SL-08 R/B 4.4 08:52:22 84° NNE 08:52:22 84° NNE 08:58:21 10° N
Cosmos 1980 Rocket 3.2 08:51:08 10° NW 08:54:59 37° WNW 08:54:59 37° WNW
USA 267 4.0 08:50:52 10° NE 08:57:04 47° NW 08:59:36 32° W
DELTA 2 R/B (1) 4.2 09:01:48 47° ENE 09:01:48 47° ENE 09:05:47 10° E
Cosmos 1745 Rocket 4.1 09:02:27 63° ESE 09:02:41 64° E 09:08:53 10° NNE
Cosmos 540 Rocket 4.5 09:00:36 10° NNW 09:03:59 38° NW 09:03:59 38° NW
CZ-2D R/B 3.4 09:17:57 10° NE 09:22:40 30° E 09:23:18 29° ESE
BREEZE-M DEB (TANK) 3.8 09:22:53 36° NW 09:24:41 87° NE 09:38:11 10° SE
Resurs 1-4 Rocket 3.2 09:21:43 10° NNE 09:26:26 33° E 09:26:52 33° ESE
Nadezhda 1 Rocket 3.9 09:22:09 10° N 09:28:35 90° SW 09:29:14 74° S
USA 234 3.7 09:23:24 10° ESE 09:29:50 62° NE 09:36:17 10° NW
SL-16 R/B 2.2 09:26:08 10° NNW 09:31:50 74° ENE 09:32:27 66° ESE
Timation 1 Rocket 4.2 09:34:32 72° W 09:34:51 75° WNW 09:40:50 10° NNE
Cosmos 2082 Rocket 4.2 09:33:56 15° WNW 09:35:31 17° NW 09:39:06 10° NNW
SL-4 R/B 2.8 09:45:47 50° NE 09:45:47 50° NE 09:49:05 10° NE
MOZ.5/SAFIR/RUBIN 5/SL-8 3.8 09:46:32 77° N 09:46:32 77° N 09:50:55 10° NNW
Cosmos 1455 4.5 09:45:51 10° NNW 09:46:45 16° NNW 09:46:45 16° NNW
Cosmos 2360 Rocket 3.0 09:43:38 10° N 09:49:07 48° ENE 09:52:40 21° SE
RESURS DK-1 4.2 09:47:08 10° N 09:50:38 27° ENE 09:52:32 19° ESE
Cosmos 1953 4.5 09:54:49 10° NNW 09:56:03 17° NW 09:56:03 17° NW
Cosmos 2237 4.3 09:53:15 10° NNW 09:58:37 57° W 09:58:37 57° W
COBE Rocket 3.8 09:54:03 10° N 09:59:01 81° WNW 09:59:14 79° WSW
Cosmos 968 Rocket 3.8 09:59:45 51° WNW 09:59:50 51° WNW 10:04:50 10° N
CZ-2C R/B 3.1 09:58:42 34° SE 10:00:40 54° ENE 10:05:44 10° N
IDEFIX/ARIANE 42P 2.4 09:58:44 10° N 10:04:00 81° WNW 10:04:34 70° SW
Lacrosse 5 rocket 3.7 10:00:08 10° NW 10:00:40 13° NW 10:00:40 13° NW
Cosmos 1709 Rocket 4.1 10:03:20 53° WSW 10:04:25 61° W 10:10:43 10° N
Cosmos 2242 Rocket 3.8 10:04:52 63° NW 10:04:52 63° NW 10:08:56 10° N
Cosmos 1825 4.4 10:04:01 15° E 10:04:31 15° E 10:06:35 10° NE
ADEOS II 2.7 09:59:48 10° NNE 10:04:51 47° E 10:06:15 38° SE
Meteor 1-24 Rocket 4.0 10:05:10 47° SSE 10:06:54 71° E 10:12:52 10° NNE
Cosmos 1300 Rocket 3.9 10:04:35 10° NNW 10:08:08 53° NW 10:08:08 53° NW
ATLAS 2AS CENTAUR R/B 3.9 10:10:27 10° NNW 10:16:48 40° NE 10:22:57 10° ESE
SJ 16-02 2.0 10:17:47 41° WNW 10:17:47 41° WNW 10:21:39 10° N
H-2A R/B 4.0 10:15:41 10° N 10:19:03 45° NW 10:19:03 45° NW
NPP 3.8 10:16:14 10° N 10:21:31 57° WNW 10:22:31 49° WSW
Cosmos 2181 Rocket 4.1 10:15:53 10° N 10:22:13 77° E 10:25:36 29° SSE
Cosmos 1703 3.6 10:23:01 51° NW 10:23:01 51° NW 10:26:05 10° N
Cosmos 1378 Rocket 3.8 10:22:38 52° SE 10:23:20 61° E 10:27:35 10° NNE
Okean 2 Rocket 4.4 10:19:25 10° N 10:23:31 37° ENE 10:26:13 19° SE
ATLAS CENTAUR R/B 2.1 10:26:52 35° ESE 10:26:52 35° ESE 10:29:53 10° NE
SL-16 R/B 3.3 10:21:21 10° SE 10:27:22 52° ENE 10:33:25 10° N
Cosmos 2322 Rocket 2.2 10:23:27 10° NNW 10:29:00 59° WSW 10:30:17 47° SSW
Cosmos 1892 3.3 10:31:25 41° ESE 10:31:49 43° E 10:35:10 10° NNE
Cosmos 2297 Rocket 4.3 10:29:05 10° SE 10:32:55 19° E 10:36:46 10° ENE
Cosmos 2333 Rocket 2.1 10:28:31 10° NNW 10:34:15 79° WSW 10:37:38 26° SSE
CZ-2C R/B 3.2 10:29:24 10° N 10:35:12 78° WNW 10:37:12 42° SSW
COSMOS 2441 4.4 10:34:21 10° N 10:39:05 65° WNW 10:40:11 49° SW
Tiangong -1.7 10:41:09 57° NNE 10:41:09 57° NNE 10:43:54 10° ENE
Okean 1 Rocket 4.5 10:36:57 10° NNE 10:40:55 35° ENE 10:44:51 10° SE
Cosmos 1295 Rocket 4.5 10:40:54 28° S 10:44:15 81° E 10:50:21 10° N
OAO 1 Rocket 4.3 10:42:54 41° WSW 10:44:41 68° S 10:49:56 10° E
AQUA 3.7 10:40:47 10° NNE 10:45:31 84° WNW 10:47:07 42° SSW
DELTA 2 R/B (1) 3.5 10:42:36 18° W 10:46:38 62° SSW 10:52:06 10° SE
SAR-Lupe-1 4.4 10:45:28 10° NNE 10:49:00 58° ESE 10:49:55 42° SSE
Cosmos 1814 Rocket 4.4 10:47:34 10° NNW 10:52:27 41° WSW 10:53:31 37° SW
Meteor 2-5 Rocket 4.5 10:59:06 29° WSW 11:01:16 39° WNW 11:06:49 10° N
CZ-2D R/B 3.1 10:57:47 10° N 11:02:36 33° WNW 11:04:36 25° WSW
Resurs 1-4 Rocket 3.3 11:01:41 10° N 11:06:04 28° WNW 11:07:56 22° W
Cosmos 2074 Rocket 4.2 11:04:50 27° SSW 11:08:07 56° W 11:14:13 10° N
Cosmos 839 Rocket 4.0 11:01:32 10° NW 11:08:10 62° WSW 11:14:10 10° SSE
Cosmos 371 Rocket 3.3 11:09:08 25° S 11:11:52 81° ESE 11:16:40 10° NNE
Cosmos 1486 Rocket 3.9 11:09:26 28° SSW 11:12:13 74° WNW 11:17:26 10° NNE
Meteor 2-11 Rocket 4.4 11:08:32 20° S 11:12:56 83° W 11:19:02 10° N
USA 234 3.8 11:07:08 10° S 11:12:59 34° SW 11:18:52 10° WNW
Cosmos 158 Rocket 4.1 11:08:44 10° NNW 11:14:08 79° ENE 11:19:26 10° SSE
Cosmos 304 Rocket 3.9 11:11:47 21° S 11:14:53 70° ESE 11:19:37 10° NNE
SL-16 R/B 4.1 11:12:41 10° WNW 11:14:14 13° W 11:14:14 13° W
Cosmos 1570 Rocket 4.1 11:15:13 10° NNW 11:20:26 58° WSW 11:25:39 10° S
Cosmos 2322 3.8 11:15:24 10° NNW 11:21:07 82° ENE 11:26:47 10° SSE
Cosmos 2219 Rocket 2.3 11:16:24 10° NNW 11:21:55 55° WSW 11:27:25 10° S
Cosmos 1025 Rocket 3.0 11:19:39 20° S 11:22:40 86° W 11:27:04 10° N
SL-4 R/B 4.1 11:20:36 10° WNW 11:24:01 22° NNW 11:27:32 10° NNE
Cosmos 405 Rocket 3.0 11:21:36 10° NNW 11:25:03 40° W 11:26:31 27° SW
ALOS 2.7 11:20:39 10° N 11:25:04 46° WNW 11:27:37 23° SW
TRAILBLAZER 4.5 11:21:22 10° NNW 11:25:57 78° WSW 11:30:31 10° SSE
Cosmos 2208 Rocket 3.9 11:22:49 10° NNW 11:28:02 67° WSW 11:33:10 10° S
RESURS DK-1 3.7 11:25:07 10° NW 11:28:02 21° WSW 11:28:02 21° WSW
YAOGAN 6 3.7 11:25:29 10° NNE 11:28:33 36° E 11:31:35 10° SSE
Envisat 3.0 11:23:46 10° NNE 11:28:51 83° ESE 11:33:34 12° S
Atlas Centaur 2 2.7 11:30:56 19° SSW 11:32:20 23° S 11:35:24 10° ESE
Cosmos 2360 Rocket 3.4 11:28:33 10° NW 11:32:41 21° W 11:34:19 19° WSW
Cosmos 1328 4.0 11:31:38 23° SW 11:33:37 46° W 11:37:19 10° N
UNK 3.8 11:30:58 10° S 11:35:30 57° WSW 11:40:06 10° NNW
Cosmos 773 Rocket 4.3 11:32:36 10° NNW 11:37:43 69° ENE 11:42:48 10° SSE
Cosmos 1825 3.4 11:37:33 19° WSW 11:38:31 22° WNW 11:41:15 10° NNW
Cosmos 1455 Rocket 3.5 11:34:33 10° N 11:38:56 65° E 11:43:18 10° SSE
IRS-1D 4.1 11:34:25 10° NNE 11:39:41 58° E 11:44:49 10° S
CZ-2C R/B 4.1 11:40:11 15° WSW 11:41:15 16° W 11:44:18 10° NW
Nadezhda 3 Rocket 4.2 11:36:24 10° NNW 11:42:31 53° W 11:48:35 10° SSW
CZ-4C R/B 2.5 11:38:52 11° S 11:42:41 44° ESE 11:47:24 10° NE
ASTEX 1 3.4 11:38:14 10° S 11:43:10 87° E 11:48:05 10° N
ADEOS II 3.6 11:40:21 10° NNW 11:44:05 20° WNW 11:47:08 13° WSW
COSMOS 2428 2.7 11:38:37 10° NNW 11:44:18 80° WSW 11:49:59 10° SSE
In-Cosmos 22 Rocket 4.4 11:42:31 10° S 11:47:58 77° E 11:53:37 10° NNE
Cosmos 2237 Rocket 3.6 11:44:48 10° N 11:50:13 43° ENE 11:55:34 10° SE
COSMOS 2455 2.9 11:46:46 12° SSW 11:52:22 85° WNW 11:58:26 10° NNE
Cosmos 2227 Rocket 3.0 11:48:06 10° S 11:53:31 49° ESE 11:58:58 10° NNE
